| time (UTC) | temp F | wind direction | speed MPH | gust MPH | rain 1hr in | rain 24hr in | rain mn in | humidity % | barometer mb |
| 20260504035051 | 63 | 327 | 3.0 | 4.0 | 0.00 | 0.01 | 0.01 | 71 | 1019.1 |
| 20260504034023 | 63 | 333 | 3.0 | 4.0 | 0.00 | 0.01 | 0.01 | 71 | 1019.1 |
| 20260504033023 | 63 | 323 | 3.0 | 5.0 | 0.00 | 0.01 | 0.01 | 72 | 1019.1 |
| 20260504032023 | 63 | 321 | 2.0 | 5.0 | 0.00 | 0.01 | 0.01 | 72 | 1019.1 |
| 20260504031023 | 63 | 325 | 2.0 | 4.0 | 0.00 | 0.01 | 0.01 | 71 | 1019.2 |
| 20260504030024 | 64 | 333 | 3.0 | 4.0 | 0.00 | 0.01 | 0.01 | 71 | 1019.2 |
| 20260504025024 | 64 | 331 | 2.0 | 4.0 | 0.00 | 0.01 | 0.01 | 71 | 1019.2 |
| 20260504024024 | 65 | 331 | 2.0 | 3.0 | 0.00 | 0.01 | 0.01 | 69 | 1019.2 |
| 20260504023024 | 65 | 317 | 3.0 | 5.0 | 0.00 | 0.01 | 0.01 | 68 | 1019.1 |
| 20260504022049 | 65 | 323 | 3.0 | 5.0 | 0.00 | 0.01 | 0.01 | 67 | 1019.0 |
| 20260504021022 | 64 | 298 | 5.0 | 8.0 | 0.00 | 0.01 | 0.01 | 71 | 1018.8 |
| 20260504020025 | 65 | 341 | 2.0 | 3.0 | 0.00 | 0.01 | 0.01 | 70 | 1018.8 |
| 20260504015024 | 67 | 348 | 2.0 | 3.0 | 0.00 | 0.01 | 0.01 | 67 | 1018.5 |
| 20260504014115 | 68 | 341 | 2.0 | 3.0 | 0.00 | 0.01 | 0.01 | 64 | 1018.4 |
| 20260504013022 | 70 | 331 | 2.0 | 4.0 | 0.00 | 0.01 | 0.01 | 59 | 1018.3 |
| 20260504012022 | 71 | 278 | 2.0 | 4.0 | 0.00 | 0.01 | 0.01 | 54 | 1018.2 |
| 20260504011051 | 71 | 248 | 4.0 | 7.0 | 0.00 | 0.01 | 0.01 | 61 | 1018.1 |
| 20260504010133 | 71 | 236 | 6.0 | 9.0 | 0.00 | 0.01 | 0.01 | 63 | 1018.1 |
| 20260504005023 | 71 | 232 | 7.0 | 10.0 | 0.00 | 0.01 | 0.01 | 66 | 1018.0 |
| 20260504004023 | 71 | 233 | 7.0 | 11.0 | 0.00 | 0.01 | 0.01 | 66 | 1018.0 |
| 20260504003023 | 71 | 237 | 7.0 | 10.0 | 0.00 | 0.01 | 0.01 | 65 | 1017.9 |
| 20260504002023 | 71 | 237 | 7.0 | 10.0 | 0.00 | 0.01 | 0.01 | 64 | 1017.9 |
| 20260504001023 | 71 | 237 | 7.0 | 10.0 | 0.00 | 0.01 | 0.01 | 64 | 1017.8 |
| 20260504000024 | 71 | 232 | 7.0 | 10.0 | 0.00 | 0.01 | 0.01 | 63 | 1017.8 |
| 20260503235023 | 71 | 235 | 6.0 | 9.0 | 0.00 | 0.01 | 0.01 | 61 | 1017.8 |
| 20260503234025 | 71 | 232 | 7.0 | 12.0 | 0.00 | 0.01 | 0.01 | 61 | 1017.9 |
| 20260503233023 | 71 | 227 | 7.0 | 10.0 | 0.00 | 0.01 | 0.01 | 61 | 1017.9 |
| 20260503232024 | 71 | 223 | 7.0 | 11.0 | 0.00 | 0.01 | 0.01 | 61 | 1017.9 |
| 20260503231024 | 71 | 220 | 7.0 | 11.0 | 0.00 | 0.01 | 0.01 | 60 | 1017.9 |
| 20260503230024 | 71 | 219 | 8.0 | 11.0 | 0.00 | 0.01 | 0.01 | 58 | 1017.9 |
| 20260503225046 | 71 | 209 | 10.0 | 12.0 | 0.00 | 0.01 | 0.01 | 59 | 1018.0 |
| 20260503224024 | 71 | 218 | 8.0 | 11.0 | 0.00 | 0.01 | 0.01 | 57 | 1017.9 |
| 20260503223024 | 71 | 221 | 8.0 | 12.0 | 0.00 | 0.01 | 0.01 | 55 | 1017.8 |
| 20260503222024 | 71 | 222 | 7.0 | 11.0 | 0.00 | 0.01 | 0.01 | 52 | 1017.8 |
| 20260503221022 | 71 | 218 | 8.0 | 10.0 | 0.00 | 0.01 | 0.01 | 51 | 1017.9 |
| 20260503220022 | 70 | 212 | 8.0 | 11.0 | 0.00 | 0.01 | 0.01 | 51 | 1018.0 |
| 20260503215050 | 70 | 215 | 9.0 | 12.0 | 0.00 | 0.01 | 0.01 | 53 | 1018.0 |
| 20260503214025 | 70 | 222 | 8.0 | 12.0 | 0.00 | 0.01 | 0.01 | 52 | 1018.1 |
| 20260503213022 | 70 | 225 | 9.0 | 13.0 | 0.00 | 0.01 | 0.01 | 52 | 1018.2 |
| 20260503212022 | 70 | 218 | 10.0 | 13.0 | 0.00 | 0.01 | 0.01 | 52 | 1018.3 |
| 20260503211022 | 70 | 229 | 7.0 | 12.0 | 0.00 | 0.01 | 0.01 | 52 | 1018.5 |
| 20260503210051 | 71 | 227 | 7.0 | 12.0 | 0.00 | 0.01 | 0.01 | 51 | 1018.5 |
| 20260503205023 | 71 | 231 | 7.0 | 12.0 | 0.00 | 0.01 | 0.01 | 53 | 1018.7 |
| 20260503204023 | 70 | 215 | 9.0 | 11.0 | 0.00 | 0.01 | 0.01 | 47 | 1018.7 |
| 20260503203023 | 70 | 203 | 8.0 | 10.0 | 0.00 | 0.01 | 0.01 | 48 | 1018.8 |
| 20260503202023 | 70 | 201 | 9.0 | 13.0 | 0.00 | 0.01 | 0.01 | 48 | 1018.9 |
| 20260503201024 | 70 | 199 | 10.0 | 13.0 | 0.00 | 0.01 | 0.01 | 47 | 1018.9 |
| 20260503200024 | 71 | 168 | 8.0 | 10.0 | 0.00 | 0.01 | 0.01 | 46 | 1019.2 |
| 20260503195023 | 73 | 221 | 4.0 | 8.0 | 0.00 | 0.01 | 0.01 | 44 | 1019.4 |
| 20260503194034 | 74 | 302 | 2.0 | 5.0 | 0.00 | 0.01 | 0.01 | 33 | 1019.5 |
| 20260503193024 | 74 | 150 | 2.0 | 5.0 | 0.00 | 0.01 | 0.01 | 35 | 1019.7 |
| 20260503192024 | 74 | 53 | 3.0 | 8.0 | 0.00 | 0.01 | 0.01 | 33 | 1019.8 |
| 20260503191024 | 74 | 242 | 2.0 | 4.0 | 0.00 | 0.01 | 0.01 | 33 | 1019.9 |
| 20260503190049 | 73 | 9 | 5.0 | 11.0 | 0.00 | 0.01 | 0.01 | 34 | 1020.2 |
| 20260503185021 | 73 | 77 | 7.0 | 11.0 | 0.00 | 0.01 | 0.01 | 34 | 1020.2 |
| 20260503184049 | 73 | 25 | 3.0 | 5.0 | 0.00 | 0.01 | 0.01 | 33 | 1020.4 |
| 20260503183050 | 73 | 356 | 5.0 | 13.0 | 0.00 | 0.01 | 0.01 | 33 | 1020.5 |
| 20260503182025 | 73 | 315 | 5.0 | 10.0 | 0.00 | 0.01 | 0.01 | 33 | 1020.6 |
| 20260503181022 | 73 | 324 | 5.0 | 10.0 | 0.00 | 0.01 | 0.01 | 33 | 1020.7 |
| 20260503180022 | 73 | 346 | 7.0 | 13.0 | 0.00 | 0.01 | 0.01 | 32 | 1020.7 |
| 20260503175025 | 72 | 3 | 4.0 | 12.0 | 0.00 | 0.01 | 0.01 | 34 | 1020.8 |
| 20260503174050 | 72 | 348 | 6.0 | 13.0 | 0.00 | 0.01 | 0.01 | 34 | 1020.8 |
| 20260503173022 | 72 | 45 | 4.0 | 9.0 | 0.00 | 0.01 | 0.01 | 35 | 1020.9 |
| 20260503172048 | 72 | 358 | 7.0 | 16.0 | 0.01 | 0.01 | 0.01 | 33 | 1021.0 |
| 20260503171048 | 72 | 342 | 6.0 | 12.0 | 0.01 | 0.01 | 0.01 | 34 | 1021.2 |
| 20260503150114 | 68 | 21 | 4.0 | 8.0 | 0.00 | 0.00 | 0.00 | 44 | 1022.0 |
| 20260503131023 | 60 | 358 | 4.0 | 7.0 | 0.00 | 0.00 | 0.00 | 65 | 1021.4 |
| 20260503081025 | 52 | 348 | 2.0 | 3.0 | 0.00 | 0.69 | 0.00 | 83 | 1019.4 |
| 20260503072025 | 53 | 3 | 2.0 | 3.0 | 0.00 | 1.10 | 0.00 | 80 | 1019.1 |
| 20260503071022 | 53 | 357 | 2.0 | 4.0 | 0.00 | 1.11 | 0.00 | 79 | 1019.1 |
| 20260503055023 | 55 | 329 | 2.0 | 4.0 | 0.00 | 1.40 | 0.00 | 75 | 1018.9 |
| 20260503054023 | 55 | 327 | 2.0 | 3.0 | 0.00 | 1.46 | 0.00 | 76 | 1018.9 |
| 20260503053043 | 55 | 354 | 2.0 | 2.0 | 0.00 | 1.46 | 0.00 | 76 | 1018.8 |
| 20260503052024 | 55 | 347 | 2.0 | 3.0 | 0.00 | 1.46 | 0.00 | 75 | 1018.8 |
| 20260503051024 | 56 | 332 | 1.0 | 2.0 | 0.00 | 1.46 | 0.00 | 73 | 1018.8 |
| 20260503050024 | 56 | 310 | 2.0 | 2.0 | 0.00 | 1.46 | 0.00 | 72 | 1018.7 |
| 20260503045024 | 56 | 303 | 1.0 | 3.0 | 0.00 | 1.46 | 1.46 | 70 | 1018.6 |
| 20260503044024 | 57 | 303 | 2.0 | 3.0 | 0.00 | 1.46 | 1.46 | 70 | 1018.6 |
| 20260503043050 | 57 | 313 | 1.0 | 2.0 | 0.00 | 1.46 | 1.46 | 69 | 1018.5 |
| 20260503042022 | 58 | 301 | 2.0 | 3.0 | 0.00 | 1.46 | 1.46 | 68 | 1018.4 |
| 20260503041022 | 58 | 312 | 1.0 | 2.0 | 0.00 | 1.46 | 1.46 | 66 | 1018.3 |
| 20260503040025 | 59 | 312 | 2.0 | 3.0 | 0.00 | 1.48 | 1.46 | 64 | 1018.2 |